When you browse on this site, cookies collect data to enhance your experience and personalize the content and advertising you see.
Visit our Privacy Policy to learn more. By continuing to use the site, you agree to this use of cookies and data.
  • En España
  • Lista de países
  • Para 7 días
  • Temperatura del agua
  • El tiempo en el mapa
  • Informadores
  • user-avatar
    Iniciar sesión

    Tiempo cada hora Boma

    Hoy, 22 Octubre, Martes

    Tiempo Temperatura Precipitaciones Viento Presión Humedad
    00:00 +20°C° 0.1 mm 0 mps 700 mmHg 95%
    01:00 +20°C° 0 mm 0 mps 699 mmHg 94%
    02:00 +20°C° 0 mm 0 mps 699 mmHg 94%
    03:00 +20°C° 0 mm 0 mps 699 mmHg 94%
    04:00 +20°C° 0 mm 0 mps 699 mmHg 95%
    05:00 +20°C° 0 mm 0 mps 699 mmHg 94%
    06:00 +20°C° 0 mm 0 mps 700 mmHg 93%
    07:00 +21°C° 0 mm 0 mps 700 mmHg 92%
    08:00 +23°C° 0 mm 0 mps 700 mmHg 80%
    09:00 +26°C° 0 mm 0 mps 701 mmHg 68%
    10:00 +29°C° 0 mm 0 mps 701 mmHg 56%
    11:00 +32°C° 0 mm 1 mps 700 mmHg 52%
    12:00 +33°C° 0 mm 1 mps 700 mmHg 47%
    13:00 +34°C° 0 mm 1 mps 699 mmHg 43%
    14:00 +33°C° 0 mm 1 mps 698 mmHg 48%
    15:00 +32°C° 0 mm 1 mps 697 mmHg 52%
    16:00 +29°C° 0 mm 0 mps 697 mmHg 57%
    17:00 +27°C° 0.9 mm 0 mps 697 mmHg 69%
    18:00 +26°C° 0.9 mm 1 mps 697 mmHg 80%
    19:00 +24°C° 0.9 mm 1 mps 698 mmHg 92%
    20:00 +22°C° 1.4 mm 0 mps 698 mmHg 92%
    21:00 +22°C° 1.4 mm 0 mps 698 mmHg 93%
    22:00 +21°C° 1.4 mm 0 mps 699 mmHg 94%
    23:00 +21°C° 1 mm 0 mps 698 mmHg 94%

    Mañana, 23 Octubre, Miércoles

    Tiempo Temperatura Precipitaciones Viento Presión Humedad
    00:00 +21°C° 1 mm 0 mps 698 mmHg 95%
    01:00 +23°C° 1 mm 1 mps 698 mmHg 96%
    02:00 +22°C° 1.6 mm 1 mps 698 mmHg 97%
    03:00 +22°C° 1.6 mm 1 mps 698 mmHg 98%
    04:00 +22°C° 1.6 mm 1 mps 698 mmHg 98%
    05:00 +22°C° 0.8 mm 1 mps 698 mmHg 98%
    06:00 +22°C° 0.8 mm 1 mps 699 mmHg 98%
    07:00 +21°C° 0.8 mm 2 mps 699 mmHg 98%
    08:00 +23°C° 0.3 mm 2 mps 700 mmHg 94%
    09:00 +23°C° 0.3 mm 2 mps 700 mmHg 91%
    10:00 +24°C° 0.3 mm 2 mps 700 mmHg 87%
    11:00 +25°C° 0.1 mm 1 mps 699 mmHg 83%
    12:00 +26°C° 0.1 mm 1 mps 699 mmHg 79%
    13:00 +27°C° 0.1 mm 1 mps 698 mmHg 74%
    14:00 +27°C° 0 mm 1 mps 698 mmHg 73%
    15:00 +27°C° 0 mm 1 mps 697 mmHg 72%
    16:00 +27°C° 0 mm 2 mps 696 mmHg 71%
    17:00 +26°C° 0.4 mm 1 mps 697 mmHg 80%
    18:00 +24°C° 0.4 mm 1 mps 697 mmHg 88%
    19:00 +22°C° 0.4 mm 1 mps 698 mmHg 97%
    20:00 +22°C° 0.2 mm 1 mps 698 mmHg 97%
    21:00 +19°C° 0.2 mm 0 mps 699 mmHg 98%
    22:00 +19°C° 0.2 mm 0 mps 699 mmHg 98%
    23:00 +19°C° 0.1 mm 0 mps 699 mmHg 99%

    Pasado mañana, 24 Octubre, Jueves

    Tiempo Temperatura Precipitaciones Viento Presión Humedad
    00:00 +19°C° 0.1 mm 0 mps 699 mmHg 99%
    01:00 +19°C° 0.1 mm 0 mps 698 mmHg 99%
    02:00 +19°C° 0 mm 0 mps 698 mmHg 99%
    03:00 +19°C° 0 mm 0 mps 698 mmHg 99%
    04:00 +19°C° 0 mm 0 mps 698 mmHg 99%
    05:00 +19°C° 0 mm 0 mps 699 mmHg 99%
    06:00 +20°C° 0 mm 0 mps 699 mmHg 98%
    07:00 +20°C° 0 mm 0 mps 700 mmHg 98%
    08:00 +21°C° 0 mm 0 mps 700 mmHg 93%
    09:00 +22°C° 0 mm 0 mps 700 mmHg 88%
    10:00 +24°C° 0 mm 0 mps 701 mmHg 83%
    11:00 +24°C° 0.5 mm 0 mps 700 mmHg 81%
    12:00 +25°C° 0.5 mm 0 mps 699 mmHg 79%
    13:00 +28°C° 0.5 mm 1 mps 698 mmHg 77%
    14:00 +26°C° 1.3 mm 0 mps 698 mmHg 78%
    15:00 +26°C° 1.3 mm 0 mps 697 mmHg 79%
    16:00 +26°C° 1.3 mm 0 mps 697 mmHg 80%
    17:00 +25°C° 0.1 mm 0 mps 697 mmHg 85%
    18:00 +23°C° 0.1 mm 0 mps 698 mmHg 89%
    19:00 +22°C° 0.1 mm 0 mps 698 mmHg 94%
    20:00 +22°C° 0.1 mm 0 mps 698 mmHg 94%
    21:00 +21°C° 0.1 mm 0 mps 699 mmHg 95%
    22:00 +21°C° 0.1 mm 0 mps 699 mmHg 96%
    23:00 +21°C° 1.1 mm 0 mps 699 mmHg 96%

    25 Octubre, Viernes

    Tiempo Temperatura Precipitaciones Viento Presión Humedad
    00:00 +21°C° 1.1 mm 0 mps 699 mmHg 97%
    01:00 +21°C° 1.1 mm 0 mps 699 mmHg 98%
    02:00 +21°C° 1 mm 0 mps 699 mmHg 98%
    03:00 +20°C° 1 mm 0 mps 698 mmHg 98%
    04:00 +22°C° 1 mm 1 mps 698 mmHg 98%
    05:00 +22°C° 0.1 mm 1 mps 699 mmHg 98%
    06:00 +23°C° 0.1 mm 1 mps 699 mmHg 98%
    07:00 +23°C° 0.1 mm 1 mps 700 mmHg 98%
    08:00 +24°C° 0 mm 1 mps 700 mmHg 95%
    09:00 +24°C° 0 mm 1 mps 700 mmHg 91%
    10:00 +25°C° 0 mm 1 mps 700 mmHg 88%
    11:00 +26°C° 0.6 mm 1 mps 700 mmHg 85%
    12:00 +27°C° 0.6 mm 1 mps 699 mmHg 82%
    13:00 +28°C° 0.6 mm 1 mps 698 mmHg 79%
    14:00 +27°C° 1.4 mm 1 mps 698 mmHg 83%
    15:00 +27°C° 1.4 mm 1 mps 698 mmHg 87%
    16:00 +24°C° 1.4 mm 0 mps 697 mmHg 91%
    17:00 +25°C° 2.7 mm 1 mps 698 mmHg 93%
    18:00 +24°C° 2.7 mm 1 mps 698 mmHg 95%
    19:00 +23°C° 2.7 mm 1 mps 699 mmHg 97%
    20:00 +23°C° 0.9 mm 1 mps 699 mmHg 97%
    21:00 +22°C° 0.9 mm 1 mps 699 mmHg 98%
    22:00 +22°C° 0.9 mm 1 mps 700 mmHg 99%
    23:00 +22°C° 0.5 mm 1 mps 700 mmHg 99%

    26 Octubre, Sábado

    Tiempo Temperatura Precipitaciones Viento Presión Humedad
    00:00 +22°C° 0.5 mm 1 mps 699 mmHg 99%
    01:00 +20°C° 0.5 mm 0 mps 699 mmHg 99%
    02:00 +20°C° 1.3 mm 0 mps 699 mmHg 99%
    03:00 +20°C° 1.3 mm 0 mps 699 mmHg 99%
    04:00 +20°C° 1.3 mm 0 mps 699 mmHg 99%
    05:00 +20°C° 1.1 mm 0 mps 699 mmHg 99%
    06:00 +20°C° 1.1 mm 0 mps 700 mmHg 99%
    07:00 +20°C° 1.1 mm 0 mps 700 mmHg 99%
    08:00 +20°C° 0.4 mm 0 mps 700 mmHg 98%
    09:00 +20°C° 0.4 mm 0 mps 701 mmHg 98%
    10:00 +21°C° 0.4 mm 0 mps 701 mmHg 98%
    11:00 +21°C° 0.2 mm 0 mps 700 mmHg 96%
    12:00 +21°C° 0.2 mm 0 mps 699 mmHg 94%
    13:00 +22°C° 0.2 mm 0 mps 699 mmHg 92%
    14:00 +23°C° 0 mm 0 mps 698 mmHg 88%
    15:00 +25°C° 0 mm 1 mps 698 mmHg 84%
    16:00 +26°C° 0 mm 1 mps 697 mmHg 80%
    17:00 +25°C° 0 mm 1 mps 698 mmHg 85%
    18:00 +22°C° 0 mm 0 mps 698 mmHg 90%
    19:00 +21°C° 0 mm 0 mps 698 mmHg 94%
    20:00 +21°C° 0.5 mm 0 mps 699 mmHg 95%
    21:00 +20°C° 0.5 mm 0 mps 699 mmHg 97%
    22:00 +20°C° 0.5 mm 0 mps 700 mmHg 98%
    23:00 +20°C° 1 mm 0 mps 699 mmHg 98%

    27 Octubre, Domingo

    Tiempo Temperatura Precipitaciones Viento Presión Humedad
    00:00 +20°C° 1 mm 0 mps 699 mmHg 98%
    01:00 +20°C° 1 mm 0 mps 699 mmHg 99%
    02:00 +20°C° 0.1 mm 0 mps 699 mmHg 99%
    03:00 +20°C° 0.1 mm 0 mps 699 mmHg 99%
    04:00 +20°C° 0.1 mm 0 mps 698 mmHg 98%
    05:00 +20°C° 0 mm 0 mps 699 mmHg 98%
    06:00 +20°C° 0 mm 0 mps 699 mmHg 98%
    07:00 +20°C° 0 mm 0 mps 700 mmHg 97%
    08:00 +21°C° 0.6 mm 0 mps 700 mmHg 94%
    09:00 +22°C° 0.6 mm 0 mps 700 mmHg 91%
    10:00 +23°C° 0.6 mm 0 mps 701 mmHg 89%
    11:00 +24°C° 1.2 mm 0 mps 700 mmHg 86%
    12:00 +25°C° 1.2 mm 0 mps 699 mmHg 84%
    13:00 +26°C° 1.2 mm 0 mps 698 mmHg 81%
    14:00 +25°C° 1.1 mm 0 mps 698 mmHg 85%
    15:00 +25°C° 1.1 mm 0 mps 697 mmHg 89%
    16:00 +24°C° 1.1 mm 0 mps 697 mmHg 92%
    17:00 +23°C° 1.3 mm 0 mps 698 mmHg 94%
    18:00 +22°C° 1.3 mm 0 mps 698 mmHg 95%
    19:00 +23°C° 1.3 mm 1 mps 698 mmHg 96%
    20:00 +23°C° 2.6 mm 1 mps 699 mmHg 97%
    21:00 +22°C° 2.6 mm 1 mps 699 mmHg 98%
    22:00 +22°C° 2.6 mm 1 mps 699 mmHg 99%
    23:00 +22°C° 6.1 mm 1 mps 699 mmHg 99%

    28 Octubre, Lunes

    Tiempo Temperatura Precipitaciones Viento Presión Humedad
    00:00 +22°C° 6.1 mm 1 mps 699 mmHg 99%
    01:00 +22°C° 6.1 mm 1 mps 699 mmHg 99%
    02:00 +22°C° 2.5 mm 1 mps 699 mmHg 99%
    03:00 +21°C° 2.5 mm 1 mps 699 mmHg 99%
    04:00 +19°C° 2.5 mm 0 mps 699 mmHg 99%
    05:00 +19°C° 0.6 mm 0 mps 699 mmHg 99%
    06:00 +19°C° 0.6 mm 0 mps 700 mmHg 99%
    07:00 +19°C° 0.6 mm 0 mps 700 mmHg 99%
    08:00 +21°C° 0.4 mm 1 mps 700 mmHg 98%
    09:00 +22°C° 0.4 mm 1 mps 701 mmHg 98%
    10:00 +22°C° 0.4 mm 1 mps 701 mmHg 97%
    11:00 +23°C° 0.1 mm 1 mps 700 mmHg 90%
    12:00 +24°C° 0.1 mm 1 mps 700 mmHg 83%
    13:00 +25°C° 0.1 mm 1 mps 699 mmHg 77%
    14:00 +25°C° 0 mm 1 mps 699 mmHg 75%
    15:00 +26°C° 0 mm 1 mps 698 mmHg 72%
    16:00 +26°C° 0 mm 1 mps 698 mmHg 70%
    17:00 +25°C° 0 mm 1 mps 698 mmHg 77%
    18:00 +21°C° 0 mm 0 mps 698 mmHg 84%
    19:00 +20°C° 0 mm 0 mps 698 mmHg 91%
    20:00 +19°C° 0 mm 0 mps 699 mmHg 92%
    21:00 +19°C° 0 mm 0 mps 699 mmHg 94%
    22:00 +19°C° 0 mm 0 mps 699 mmHg 95%
    23:00 +19°C° 0 mm 0 mps 699 mmHg 95%
    Mostrar más